EW2435 Weather Reports


time (UTC)temp
C
wind
direction
speed
KPH
gust
KPH
rain 1hr
cm
rain 24hr
cm
rain mn
cm
humidity
%
barometer
mb
20260504201850 26 122 0.0 0.0 0.00 0.00 0.00 33 1017.9
20260504201352 26 122 0.0 0.0 0.00 0.00 0.00 33 1018.1
20260504200851 26 122 0.0 0.0 0.00 0.00 0.00 33 1018.1
20260504200344 26 122 0.0 1.6 0.00 0.00 0.00 33 1018.2
20260504195832 26 122 0.0 1.6 0.00 0.00 0.00 32 1018.1
20260504195328 26 119 0.0 1.6 0.00 0.00 0.00 35 1018.2
20260504194827 26 119 0.0 1.6 0.00 0.00 0.00 34 1018.3
20260504194328 26 169 0.0 1.6 0.00 0.00 0.00 34 1018.3
20260504194046 26 136 0.0 3.2 0.00 0.00 0.00 34 1018.3
20260504193327 26 177 0.0 3.2 0.00 0.00 0.00 35 1018.3
20260504193048 26 178 0.0 0.0 0.00 0.00 0.00 37 1018.4
20260504192320 26 178 0.0 4.8 0.00 0.00 0.00 35 1018.4
20260504191818 26 178 0.0 4.8 0.00 0.00 0.00 39 1018.5
20260504191314 26 147 0.0 0.0 0.00 0.00 0.00 37 1018.6
20260504190816 26 147 0.0 1.6 0.00 0.00 0.00 35 1018.7
20260504190306 26 147 0.0 4.8 0.00 0.00 0.00 33 1018.7
20260504185802 26 140 0.0 4.8 0.00 0.00 0.00 35 1018.9
20260504185256 26 139 0.0 4.8 0.00 0.00 0.00 38 1018.9
20260504184759 25 127 0.0 0.0 0.00 0.00 0.00 36 1018.9
20260504184257 25 127 0.0 0.0 0.00 0.00 0.00 36 1019.0
20260504183756 25 127 0.0 0.0 0.00 0.00 0.00 34 1019.1
20260504183254 25 127 0.0 0.0 0.00 0.00 0.00 35 1019.1
20260504182755 25 127 0.0 0.0 0.00 0.00 0.00 36 1019.2
20260504182256 25 127 0.0 3.2 0.00 0.00 0.00 34 1019.2
20260504181743 25 127 0.0 4.8 0.00 0.00 0.00 35 1019.4
20260504181235 25 70 0.0 4.8 0.00 0.00 0.00 36 1019.3
20260504180727 25 111 0.0 1.6 0.00 0.00 0.00 40 1019.3
20260504180445 25 111 0.0 11.3 0.00 0.00 0.00 37 1019.4
20260504175721 25 132 1.6 11.3 0.00 0.00 0.00 36 1019.4
20260504175223 25 128 0.0 0.0 0.00 0.00 0.00 36 1019.5
20260504174720 25 128 0.0 12.9 0.00 0.00 0.00 38 1019.6
20260504174220 25 128 0.0 12.9 0.00 0.00 0.00 40 1019.6
20260504173724 25 121 0.0 1.6 0.00 0.00 0.00 39 1019.6
20260504173218 24 82 0.0 1.6 0.00 0.00 0.00 39 1019.6
20260504172933 24 97 0.0 0.0 0.00 0.00 0.00 42 1019.7
20260504172215 23 97 0.0 0.0 0.00 0.00 0.00 39 1019.9
20260504171708 24 97 0.0 1.6 0.00 0.00 0.00 40 1019.9
20260504171205 24 97 0.0 1.6 0.00 0.00 0.00 39 1020.0
20260504170707 24 138 0.0 1.6 0.00 0.00 0.00 40 1020.2
20260504170220 24 148 0.0 1.6 0.00 0.00 0.00 40 1020.3
20260504151118 21 140 0.0 1.6 0.00 0.00 0.00 48 1021.4
20260504150618 21 140 0.0 3.2 0.00 0.00 0.00 50 1021.5
20260504150118 21 139 0.0 3.2 0.00 0.00 0.00 47 1021.5
20260504141105 18 142 0.0 3.2 0.00 0.00 0.00 63 1021.6
20260504140602 17 107 0.0 0.0 0.00 0.00 0.00 65 1021.6
20260504140108 16 107 0.0 0.0 0.00 0.00 0.00 71 1021.6
20260504130547 11 107 0.0 0.0 0.00 0.00 0.00 96 1021.6
20260504110432 5 107 0.0 0.0 0.00 0.00 0.00 94 1021.3
20260504100409 5 107 0.0 0.0 0.00 0.00 0.00 94 1020.9
20260504100133 5 107 0.0 0.0 0.00 0.00 0.00 94 1021.0
20260504081306 6 107 0.0 0.0 0.00 0.00 0.00 93 1021.1
20260504080805 6 107 0.0 0.0 0.00 0.00 0.00 93 1021.0
20260504080306 6 107 0.0 0.0 0.00 0.00 0.00 93 1021.0
20260504070251 6 107 0.0 0.0 0.00 0.00 0.00 92 1021.4
20260504060202 7 107 0.0 0.0 0.00 0.00 0.00 91 1021.2
20260504050624 8 107 0.0 0.0 0.00 0.00 0.00 89 1021.6
20260504050121 8 107 0.0 0.0 0.00 0.00 0.00 89 1021.8
20260504045606 8 107 0.0 0.0 0.00 0.00 0.00 89 1021.8
20260504045332 8 107 0.0 0.0 0.00 0.00 0.00 88 1021.8
20260504044604 8 107 0.0 0.0 0.00 0.00 0.00 88 1021.8
20260504044059 8 107 0.0 0.0 0.00 0.00 0.00 87 1021.8
20260504043558 8 107 0.0 0.0 0.00 0.00 0.00 87 1021.8
20260504043102 8 107 0.0 0.0 0.00 0.00 0.00 88 1021.9
20260504042558 8 107 0.0 0.0 0.00 0.00 0.00 87 1021.9
20260504042100 8 107 0.0 0.0 0.00 0.00 0.00 87 1021.9
20260504041556 8 107 0.0 0.0 0.00 0.00 0.00 87 1021.8
20260504041309 8 107 0.0 0.0 0.00 0.00 0.00 86 1021.8
20260504040546 9 107 0.0 0.0 0.00 0.00 0.00 86 1021.9
20260504040059 9 107 0.0 0.0 0.00 0.00 0.00 86 1021.8
20260504035535 9 107 0.0 0.0 0.00 0.00 0.00 85 1021.8
20260504035035 9 107 0.0 0.0 0.00 0.00 0.00 85 1021.8
20260504034537 9 107 0.0 0.0 0.00 0.00 0.00 85 1021.9
20260504034032 9 107 0.0 0.0 0.00 0.00 0.00 84 1021.8
20260504033750 9 107 0.0 0.0 0.00 0.00 0.00 84 1021.8
20260504033034 10 107 0.0 0.0 0.00 0.00 0.00 84 1021.9
20260504032746 10 107 0.0 0.0 0.00 0.00 0.00 83 1021.8
20260504032026 10 107 0.0 0.0 0.00 0.00 0.00 83 1021.8
20260504031542 10 107 0.0 0.0 0.00 0.00 0.00 83 1021.8
20260504031022 10 107 0.0 0.0 0.00 0.00 0.00 82 1021.8
20260504030459 10 107 0.0 0.0 0.00 0.00 0.00 82 1021.6
20260504025955 10 107 0.0 0.0 0.00 0.00 0.00 81 1021.6
20260504025453 10 107 0.0 0.0 0.00 0.00 0.00 80 1021.6
20260504024953 10 107 0.0 0.0 0.00 0.00 0.00 80 1021.6
20260504024942 10 107 0.0 0.0 0.00 0.00 0.00 79 1021.8
20260504023954 11 107 0.0 0.0 0.00 0.00 0.00 79 1021.6
20260504023451 11 107 0.0 0.0 0.00 0.00 0.00 78 1021.4
20260504022946 11 107 0.0 0.0 0.00 0.00 0.00 77 1021.4
20260504022447 11 107 0.0 0.0 0.00 0.00 0.00 77 1021.3
20260504021946 11 107 0.0 0.0 0.00 0.00 0.00 76 1021.3
20260504021436 11 107 0.0 0.0 0.00 0.00 0.00 75 1021.2
20260504020936 11 107 0.0 0.0 0.00 0.00 0.00 75 1021.1
20260504020652 11 107 0.0 0.0 0.00 0.00 0.00 74 1020.9
20260504020154 12 107 0.0 0.0 0.00 0.00 0.00 74 1021.0
20260504015432 12 107 0.0 0.0 0.00 0.00 0.00 72 1020.9
20260504014932 12 107 0.0 0.0 0.00 0.00 0.00 72 1020.8
20260504014422 12 107 0.0 0.0 0.00 0.00 0.00 71 1020.9
20260504013922 12 107 0.0 0.0 0.00 0.00 0.00 71 1020.8
20260504013416 12 107 0.0 0.0 0.00 0.00 0.00 69 1020.7
20260504012916 13 107 0.0 0.0 0.00 0.00 0.00 69 1020.6
20260504012414 13 107 0.0 0.0 0.00 0.00 0.00 68 1020.6
20260504011913 13 107 0.0 0.0 0.00 0.00 0.00 67 1020.5
20260504011428 13 107 0.0 0.0 0.00 0.00 0.00 66 1020.4
20260504010852 14 107 0.0 0.0 0.00 0.00 0.00 65 1020.4
20260504010618 14 107 0.0 0.0 0.00 0.00 0.00 64 1020.4
20260504010114 15 107 0.0 0.0 0.00 0.00 0.00 64 1020.4
20260504005829 15 107 0.0 0.0 0.00 0.00 0.00 63 1020.4
20260504004853 15 107 0.0 0.0 0.00 0.00 0.00 60 1020.2
20260504004351 15 107 0.0 0.0 0.00 0.00 0.00 59 1020.2
20260504003851 16 107 0.0 0.0 0.00 0.00 0.00 58 1020.2
20260504003447 16 107 0.0 0.0 0.00 0.00 0.00 57 1020.2
20260504002349 17 107 0.0 0.0 0.00 0.00 0.00 54 1020.2
20260504001850 17 107 0.0 0.0 0.00 0.00 0.00 54 1020.1
20260504001349 17 107 0.0 0.0 0.00 0.00 0.00 53 1020.1
20260504001108 18 107 0.0 0.0 0.00 0.00 0.00 51 1020.1
20260504000346 18 107 0.0 0.0 0.00 0.00 0.00 50 1020.0
20260504000334 18 107 0.0 0.0 0.00 0.00 0.00 44 1020.0
20260503235344 18 107 0.0 0.0 0.00 0.00 0.00 41 1020.0
20260503234847 19 107 0.0 0.0 0.00 0.00 0.00 40 1019.9
20260503234345 19 107 0.0 0.0 0.00 0.00 0.00 39 1020.0
20260503233833 19 107 0.0 0.0 0.00 0.00 0.00 38 1020.0
20260503233332 19 107 0.0 0.0 0.00 0.00 0.00 38 1019.9
20260503232833 20 107 0.0 0.0 0.00 0.00 0.00 37 1019.9
20260503232316 20 107 0.0 0.0 0.00 0.00 0.00 38 1019.9
20260503231816 20 107 0.0 0.0 0.00 0.00 0.00 37 1019.9
20260503231315 20 107 0.0 0.0 0.00 0.00 0.00 37 1020.0
20260503231042 20 107 0.0 0.0 0.00 0.00 0.00 37 1019.9
20260503230316 20 107 0.0 0.0 0.00 0.00 0.00 39 1020.0
20260503225814 20 107 0.0 0.0 0.00 0.00 0.00 39 1020.0
20260503225535 20 107 0.0 0.0 0.00 0.00 0.00 40 1020.0
20260503224814 20 107 0.0 0.0 0.00 0.00 0.00 37 1020.0
20260503224308 20 107 0.0 1.6 0.00 0.00 0.00 35 1019.9
20260503223808 20 107 0.0 1.6 0.00 0.00 0.00 36 1019.9
20260503223308 20 48 0.0 1.6 0.00 0.00 0.00 36 1020.0
20260503222805 20 48 0.0 1.6 0.00 0.00 0.00 35 1020.0
20260503222252 21 177 0.0 0.0 0.00 0.00 0.00 35 1020.0
20260503221745 21 177 0.0 0.0 0.00 0.00 0.00 33 1020.0
20260503221245 21 177 0.0 1.6 0.00 0.00 0.00 36 1020.1
20260503220745 21 177 0.0 1.6 0.00 0.00 0.00 34 1020.1
20260503220243 21 118 0.0 1.6 0.00 0.00 0.00 35 1020.1
20260503220010 21 136 0.0 0.0 0.00 0.00 0.00 36 1020.2
20260503215245 21 136 0.0 0.0 0.00 0.00 0.00 34 1020.0
20260503214736 21 136 0.0 0.0 0.00 0.00 0.00 35 1020.1
20260503214231 21 136 0.0 0.0 0.00 0.00 0.00 35 1020.1
20260503213733 21 136 0.0 0.0 0.00 0.00 0.00 33 1020.2
20260503213230 21 136 0.0 4.8 0.00 0.00 0.00 34 1020.2
20260503212730 21 136 0.0 4.8 0.00 0.00 0.00 38 1020.3
20260503212232 21 64 0.0 0.0 0.00 0.00 0.00 35 1020.2
20260503211719 21 64 0.0 0.0 0.00 0.00 0.00 34 1020.2
20260503211214 21 64 0.0 0.0 0.00 0.00 0.00 34 1020.3
20260503210713 21 64 0.0 1.6 0.00 0.00 0.00 34 1020.3
20260503210216 22 64 0.0 1.6 0.00 0.00 0.00 35 1020.4
20260503205711 22 90 0.0 1.6 0.00 0.00 0.00 35 1020.3
20260503205212 22 90 0.0 1.6 0.00 0.00 0.00 35 1020.4
20260503204933 22 158 0.0 0.0 0.00 0.00 0.00 36 1020.4
20260503204211 22 158 0.0 0.0 0.00 0.00 0.00 34 1020.5
20260503203711 22 158 0.0 0.0 0.00 0.00 0.00 35 1020.5
20260503203209 22 158 0.0 4.8 0.00 0.00 0.00 37 1020.6
20260503202711 22 158 0.0 6.4 0.00 0.00 0.00 36 1020.5